Elefsis, Greece

12:24 PM EET on January 16, 2018 (GMT +0200)
Elefsis Air Base

Weather History for LGEL - January, 2012

Change the Weather History Date:

Tuesday, January 31, 2012

  Actual Average Record
Temperature  
Mean Temperature 34 °F -  
Max Temperature 37 °F 55 °F 65 °F (2015)
Min Temperature 32 °F 39 °F 32 °F (1997)
Degree Days  
Heating Degree Days 30    
Moisture  
Dew Point 22 °F    
Average Humidity 62    
Maximum Humidity 70    
Minimum Humidity 52    
Precipitation  
Precipitation 0.00 in - - ()
Sea Level Pressure  
Sea Level Pressure 30.12 in    
Wind  
Wind Speed 11 mph ()    
Max Wind Speed 17 mph    
Max Gust Speed 33 mph    
Visibility 6.0 miles    
Events Snow    
Averages and records for this station are not official NWS values.
T = Trace of Precipitation, MM = Missing Value Source: Averaged Metar Reports

Daily Weather History Graph

Daily Weather History Graph

Search for Another Location

Airport or City:

Trip Planner

Search our weather history database for the weather conditions in past years. The results will help you decide how hot, cold, wet, or windy it might be!

Date:

Astronomy

Jan. 31, 2012 Rise Set
Actual Time 7:31 AM EET 5:46 PM EET
Civil Twilight 7:04 AM EET 6:14 PM EET
Nautical Twilight 6:32 AM EET 6:46 PM EET
Astronomical Twilight 6:01 AM EET 7:17 PM EET
Moon 11:26 AM EET (1/31) 1:01 AM EET (1/31)
Length of Visible Light 11h 10m
Length of Day
10h 14m
First Quarter, 52% of the Moon is Illuminated
Jan 31
First Quarter
Feb 7
Full
Feb 14
Last Quarter
Feb 22
New
Mar 1
First Quarter

Hourly Weather History & Observations

Time (EET) Temp. Windchill Dew Point Humidity Pressure Visibility Wind Dir Wind Speed Gust Speed Precip Events Conditions
12:20 AM 33.8 °F 27.7 °F 21.2 °F 60% 30.12 in 6.2 mi NNE 6.9 mph - N/A   Mostly Cloudy
12:50 AM 33.8 °F 26.4 °F 19.4 °F 56% 30.12 in 6.2 mi North 9.2 mph - N/A   Mostly Cloudy
1:20 AM 33.8 °F 26.4 °F 19.4 °F 56% 30.12 in 6.2 mi North 9.2 mph - N/A   Mostly Cloudy
1:50 AM 33.8 °F 23.2 °F 17.6 °F 52% 30.12 in 6.2 mi North 17.3 mph - N/A   Mostly Cloudy
2:20 AM 33.8 °F 23.2 °F 19.4 °F 56% 30.12 in 6.2 mi North 17.3 mph - N/A   Mostly Cloudy
2:50 AM 33.8 °F 23.2 °F 19.4 °F 56% 30.12 in 6.2 mi NNW 17.3 mph - N/A   Mostly Cloudy
3:20 AM 32.0 °F 21.2 °F 21.2 °F 64% 30.12 in 6.2 mi NNW 16.1 mph 27.6 mph N/A   Mostly Cloudy
3:50 AM 32.0 °F 22.1 °F 21.2 °F 64% 30.09 in 6.2 mi NNW 13.8 mph 25.3 mph N/A   Mostly Cloudy
4:20 AM 32.0 °F 22.1 °F 19.4 °F 60% 30.09 in 6.2 mi NNW 13.8 mph 25.3 mph N/A   Mostly Cloudy
4:50 AM 32.0 °F 20.8 °F 21.2 °F 64% 30.09 in 6.2 mi NNW 17.3 mph 28.8 mph N/A   Mostly Cloudy
5:20 AM 32.0 °F 20.8 °F 21.2 °F 64% 30.09 in 6.2 mi NNW 17.3 mph 31.1 mph N/A   Scattered Clouds
5:50 AM 32.0 °F 23.0 °F 19.4 °F 60% 30.09 in 6.2 mi NNW 11.5 mph 23.0 mph N/A   Scattered Clouds
6:20 AM 32.0 °F 23.0 °F 21.2 °F 64% 30.09 in 6.2 mi NNW 11.5 mph 23.0 mph N/A   Scattered Clouds
7:20 AM 32.0 °F 22.1 °F 21.2 °F 64% 30.09 in 6.2 mi North 13.8 mph 25.3 mph N/A   Mostly Cloudy
7:50 AM 32.0 °F 23.6 °F 21.2 °F 64% 30.09 in 6.2 mi NNW 10.4 mph 24.2 mph N/A   Mostly Cloudy
8:20 AM 32.0 °F 22.1 °F 21.2 °F 64% 30.09 in 6.2 mi North 13.8 mph 33.4 mph N/A   Mostly Cloudy
8:50 AM 32.0 °F 21.6 °F 23.0 °F 69% 30.09 in 5.6 mi North 15.0 mph 29.9 mph N/A Snow Blowing Snow
9:20 AM 32.0 °F 23.0 °F 23.0 °F 69% 30.12 in 6.2 mi NNW 11.5 mph 25.3 mph N/A   Mostly Cloudy
9:50 AM 33.8 °F 24.8 °F 23.0 °F 65% 30.12 in 6.2 mi North 12.7 mph - N/A   Mostly Cloudy
10:20 AM 33.8 °F 24.3 °F 23.0 °F 65% 30.12 in 6.2 mi North 13.8 mph 28.8 mph N/A   Mostly Cloudy
10:50 AM 33.8 °F 23.9 °F 21.2 °F 60% 30.12 in 6.2 mi North 15.0 mph 26.5 mph N/A   Mostly Cloudy
11:20 AM 33.8 °F 23.5 °F 19.4 °F 56% 30.12 in 6.2 mi North 16.1 mph 29.9 mph N/A   Scattered Clouds
11:50 AM 35.6 °F 25.9 °F 21.2 °F 56% 30.12 in 6.2 mi North 16.1 mph 27.6 mph N/A   Scattered Clouds
12:20 PM 35.6 °F 26.6 °F 21.2 °F 56% 30.12 in 6.2 mi North 13.8 mph - N/A   Scattered Clouds
12:50 PM 35.6 °F 27.5 °F 21.2 °F 56% 30.12 in 6.2 mi North 11.5 mph 24.2 mph N/A   Scattered Clouds
1:20 PM 35.6 °F 26.6 °F 21.2 °F 56% 30.12 in 6.2 mi North 13.8 mph - N/A   Scattered Clouds
1:50 PM 37.4 °F 29.3 °F 21.2 °F 52% 30.09 in 6.2 mi North 12.7 mph - N/A   Scattered Clouds
2:20 PM 37.4 °F 29.8 °F 21.2 °F 52% 30.09 in 6.2 mi North 11.5 mph 24.2 mph N/A   Scattered Clouds
2:50 PM 37.4 °F 28.2 °F 21.2 °F 52% 30.09 in 6.2 mi North 16.1 mph 29.9 mph N/A   Mostly Cloudy
3:20 PM 37.4 °F 28.5 °F 21.2 °F 52% 30.09 in 6.2 mi North 15.0 mph 28.8 mph N/A   Mostly Cloudy
3:50 PM 37.4 °F 29.3 °F 23.0 °F 56% 30.09 in 6.2 mi North 12.7 mph 24.2 mph N/A   Scattered Clouds
4:20 PM 37.4 °F 29.3 °F 23.0 °F 56% 30.09 in 6.2 mi North 12.7 mph 24.2 mph N/A   Scattered Clouds
4:50 PM 35.6 °F 27.1 °F 23.0 °F 60% 30.09 in 6.2 mi NNW 12.7 mph 24.2 mph N/A   Scattered Clouds
5:20 PM 35.6 °F 27.5 °F 24.8 °F 65% 30.09 in 6.2 mi North 11.5 mph 23.0 mph N/A   Scattered Clouds
5:50 PM 33.8 °F 24.3 °F 24.8 °F 70% 30.12 in 5.6 mi North 13.8 mph - N/A   Mostly Cloudy
6:20 PM 33.8 °F 25.3 °F 24.8 °F 70% 30.12 in 5.6 mi North 11.5 mph - N/A   Mostly Cloudy
6:50 PM 33.8 °F 24.3 °F 24.8 °F 70% 30.12 in 5.6 mi North 13.8 mph - N/A   Mostly Cloudy
7:20 PM 33.8 °F 25.3 °F 24.8 °F 70% 30.15 in 5.6 mi North 11.5 mph - N/A   Mostly Cloudy
7:50 PM 33.8 °F 25.8 °F 24.8 °F 70% 30.15 in 5.6 mi North 10.4 mph - N/A   Mostly Cloudy
8:20 PM 33.8 °F 25.8 °F 24.8 °F 70% 30.15 in 4.3 mi NNW 10.4 mph - N/A Snow Light Snow
8:50 PM 33.8 °F 27.0 °F 24.8 °F 70% 30.15 in 5.6 mi North 8.1 mph - N/A   Mostly Cloudy
9:20 PM 33.8 °F 27.7 °F 24.8 °F 70% 30.15 in 5.6 mi North 6.9 mph - N/A Snow Light Snow
9:50 PM 33.8 °F 27.7 °F 24.8 °F 70% 30.15 in 5.6 mi North 6.9 mph - N/A Snow Light Snow
10:20 PM 33.8 °F 29.6 °F 24.8 °F 70% 30.15 in 5.6 mi North 4.6 mph - N/A Snow Light Snow
10:50 PM 33.8 °F 29.6 °F 24.8 °F 70% 30.18 in 6.2 mi North 4.6 mph - N/A Snow Light Snow
11:20 PM 33.8 °F 28.6 °F 24.8 °F 70% 30.18 in 5.6 mi NNW 5.8 mph - N/A   Mostly Cloudy
11:50 PM 33.8 °F 26.4 °F 23.0 °F 65% 30.18 in 6.2 mi North 9.2 mph - N/A   Mostly Cloudy